Location: Sihaung
(22.8641°N, 94.0549°E)
Time: 18:00:51
(UTC+00:00)

CZ-2C R/B - Pass Details

Date: 03 March 2021
Orbit: 703 x 909 km, 98.1° (Epoch: 13 April)

Event Time Altitude Azimuth Distance (km) Brightness Sun altitude
Rises 12:10:08 0° 168° (SSE) 3,522 6.4 -5.9°
Reaches altitude 10° 12:12:34 10° 169° (SSE) 2,582 5.7 -6.4°
Maximum altitude 12:18:22 86° 256° (WSW) 903 3.4 -7.8°
Drops below altitude 10° 12:24:04 10° 347° (NNW) 2,531 5.8 -9.1°
Sets 12:26:26 0° 348° (NNW) 3,447 6.5 -9.6°
